Regional Weather Roundup
Issued by NWS Newport/Morehead, NC

Current Version | Previous Version | Graphics & Text | Print | Product List | Glossary On
Versions: 1 2 3 4 5 6 7 8 9 10 11 12 13 14 15 16 17 18 19 20 21 22 23 24 25 26 27 28 29 30 31 32 33 34 35 36 37 38 39 40 41 42 43 44 45 46 47 48 49 50
000 ASUS42 KMHX 020225 RWRMHX WEATHER ROUNDUP FOR EASTERN NORTH CAROLINA NATIONAL WEATHER SERVICE NEWPORT/MOREHEAD CITY NC 1000 PM EDT WED JUL 01 2015 NOTE: "FAIR" INDICATES FEW OR NO CLOUDS BELOW 12,000 FEET WITH NO SIGNIFICANT WEATHER AND/OR OBSTRUCTIONS TO VISIBILITY NCZ015>017-031-032-045>047-102-103-020300- NORTH COAST CITY SKY/WX TMP DP RH WIND PRES REMARKS EDENTON N/A 81 72 75 SW12 29.94R ELIZABETH CITY CLEAR 74 70 87 S5 29.93R KITTY HAWK CLEAR 81 73 76 SW3 29.93R MANTEO CLEAR 80 74 84 SW10 29.95R $$ NCZ045>047-081-094-103-104-020300- CENTRAL COAST CITY SKY/WX TMP DP RH WIND PRES REMARKS FRISCO CLEAR 78 74 87 SW16G23 29.96R SWANQUARTER N/A 81 N/A N/A SW6G15 29.91S $$ NCZ095-097-098-100-101-020300- SOUTHERN COAST CITY SKY/WX TMP DP RH WIND PRES REMARKS BEAUFORT PTCLDY 79 76 90 SW15 29.97R CEDAR ISLAND N/A 79 N/A N/A S9 30.00S JACKSONVILLE MOCLDY 77 72 84 S5 29.96R PINEY ISLAND PTCLDY N/A N/A N/A S6 29.96R WILMINGTON PTCLDY 79 74 84 SW7 29.98R $$ NCZ011>013-027>030-043-044-078>080-089-090>093-098-020300- COASTAL PLAIN CITY SKY/WX TMP DP RH WIND PRES REMARKS AHOSKIE MOCLDY 72 70 93 CALM 29.94R CLINTON PTCLDY 75 74 95 CALM 29.97S ELIZABETHTOWN PTCLDY 78 73 84 CALM 29.98R GOLDSBORO PTCLDY 77 72 83 S3 29.94S GREENVILLE PTCLDY 77 72 83 SW7 29.98R HAVELOCK PTCLDY 78 74 87 SW6 29.98R KENANSVILLE PTCLDY 73 71 94 CALM 29.98R KINSTON NOT AVBL NEW BERN MOCLDY 77 72 84 SW3 29.98R RICHLANDS PTCLDY 73 68 83 CALM 29.98R ROCKY MOUNT PTCLDY 78 71 79 S9 29.95R WASHINGTON MOCLDY 77 71 82 SW7 29.97R WHITEVILLE PTCLDY 76 71 83 CALM 29.98S $$ AMZ130-135-150-152-154-156-158-170-250-252-270-ANZ085-086-088-633-658-670-020300- MARINE OBSERVATIONS STATION/POSITION TIME TEMP WIND PRES WAVE SWELL AIR SEA DIR/SP/G HT/PER HT/PER (UTC) (F) (DEG/KT/KT) (MB) (FT/S) (FT/S) CHESAPEAKE LIGHT 0200 80 220/ 9/ 9 1013.6 64 E VA BEACH 0150 78 77 220/ 10/ 12 1013.1 5/ 9 5/ 9 DUCK 0200 82 62 220/ 7/ 8 1012.7 2 E DUCK 0111 72 N/A 2/ 8 OREGON INLET 0200 79 84 220/ 12/ 14 1014.0 13E OREGON INLT 0200 74 N/A 4/ 8 HATTERAS CG 0200 77 82 220/ 8/ 13 1014.4 DIAMOND BUOY 0150 80 83 230/ 19/ 21 1014.2 5/ 8 3/ 8 CAPE LOOKOUT 0200 79 240/ 12/ 18 1014.7 BEAUFORT LAB 0200 80 81 240/ 7/ 13 1014.2 30 SE NEW RVR IN 0108 80 80 250/ 17/ 21 1015.2 27 SE WRIGHTSVLE 0200 80 250/ 16/ 19 N/A 5 SE WRIGHTSVLE 0108 81 80 240/ 14/ 17 1014.6 225 S CAPE HAT 0150 82 80 240/ 17/ 19 1018.3 6/ 7 41 SE CHARLESTON 0150 82 82 220/ 14/ 16 1016.0 4/ 6 2/ 8 $$

USA.gov is the U.S. government's official web portal to all federal, state and local government web resources and services.